User: anonymous   Login
Location: Campbell_Patio
(29.7380°N, 95.6336°W)
Time: 13:20:01
(UTC-05:00)
Language:

Tiangong - Orbit

View from above orbital plane
View from above orbital plane
View from above satellite
View from above satellite

Ground track
Ground track

The orbit data is extracted from the following two-line orbital elements,

1 48274U 21035A   25163.00357684  .00019785  00000-0  25389-3 0  9996
2 48274  41.4651  52.1156 0004051  63.3767 296.7486 15.58653040235346
Epoch (UTC): 12 June 2025 00:05:09
Eccentricity: 0.0004051
inclination: 41.4651°
perigee height: 389 km
apogee height: 394 km
right ascension of ascending node: 52.1156°
argument of perigee: 63.3767°
revolutions per day: 15.58653040
mean anomaly at epoch: 296.7486°
orbit number at epoch: 23534

The dashed part of the orbit path shows where the satellite is in the earth's shadow,  

DLR